Regional Weather Roundup
Issued by NWS

Home | Current Version | Previous Version | Graphics & Text | Print | Product List | Glossary On
Versions: 1 2 3 4 5 6 7 8 9 10 11 12 13 14 15 16 17 18 19 20 21 22 23 24 25 26 27 28 29 30 31 32 33 34 35 36 37 38 39 40 41 42 43 44 45 46 47 48 49 50
000
ASUS43 KOAX 030802
RWRNE

WEATHER ROUNDUP FOR NEBRASKA
NATIONAL WEATHER SERVICE OMAHA NE
300 AM CDT TUE MAY 03 2016

NOTES: SATELLITE DATA IS BEING USED TO AUGMENT CLOUD COVER ABOVE
       12000 FEET.
       "FAIR" INDICATES FEW OR NO CLOUDS BELOW 12,000 FEET WITH NO
       SIGNIFICANT WEATHER AND/OR OBSTRUCTIONS TO VISIBILITY.

  * THESE STATIONS DO NOT REPORT WEATHER SUCH AS RAIN...SNOW OR FOG.

NEZ001>004-019>022-054>056-030900-
NEBRASKA PANHANDLE

CITY           SKY/WX    TMP DP  RH WIND       PRES   REMARKS
SCOTTSBLUFF    CLEAR     42  37  82 NW12      30.08S
ALLIANCE       CLEAR     38  36  92 W12       30.04R WCI  30
CHADRON        CLEAR     43  37  79 VRB3      30.07S
KIMBALL        CLEAR     38  33  82 W7        30.10F WCI  32
SIDNEY         PTCLDY    40  35  83 W12       30.06F WCI  33
$$

NEZ057>060-069>072-079>082-030900-
SOUTHWEST NEBRASKA

CITY           SKY/WX    TMP DP  RH WIND       PRES   REMARKS
NORTH PLATTE   MOCLDY    44  42  93 E5        30.03F
IMPERIAL       CLOUDY    44  42  93 CALM      30.03F
LEXINGTON      CLOUDY    46  41  83 NW3       30.04F
MCCOOK         CLOUDY    47  44  90 E8        30.03F
$$

NEZ005>010-023>029-035>040-094-030900-
NORTH CENTRAL NEBRASKA

CITY           SKY/WX    TMP DP  RH WIND       PRES   REMARKS
VALENTINE      CLEAR     39  37  92 W8        30.05S WCI  33
AINSWORTH      FOG       40  39  99 W5        30.04S VSB 1
BROKEN BOW     MOCLDY    45  40  82 N5        30.03F
ORD            CLOUDY    43  40  89 W6        30.03S
$$

NEZ041-046>049-061>064-073>077-083>087-030900-
SOUTH CENTRAL NEBRASKA

CITY           SKY/WX    TMP DP  RH WIND       PRES   REMARKS
GRAND ISLAND   CLEAR     45  38  76 S5        30.05S
AURORA         CLEAR     46  38  73 S3        30.05S
HASTINGS       CLEAR     47  37  68 S5        30.04S
KEARNEY *      MOCLDY    46  37  71 S6        30.04S
YORK           CLEAR     45  39  81 CALM      30.05F
$$

NEZ011>018-030>034-042>045-030900-
NORTHEAST NEBRASKA

CITY           SKY/WX    TMP DP  RH WIND       PRES   REMARKS
NORFOLK        CLEAR     41  37  86 SW6       30.03F
ALBION         CLOUDY    44  40  87 CALM      30.04F
BLAIR          CLEAR     48  40  73 S3        30.04F
COLUMBUS *     CLEAR     41  34  75 CALM      30.06S
FREMONT        CLEAR     44  44  98 CALM      30.04F
TEKAMAH        PTCLDY    46  42  86 CALM      30.04F
$$

NEZ050>053-065>068-078-088>093-030900-
SOUTHEAST NEBRASKA

CITY           SKY/WX    TMP DP  RH WIND       PRES   REMARKS
LINCOLN        CLOUDY    45  42  89 CALM      30.06F
OMAHA EPPLEY   CLEAR     45  41  86 SE5       30.04F
BEATRICE       CLEAR     43  41  92 CALM      30.06R FOG
FALLS CITY     PTCLDY    46  42  86 CALM      30.06S
$$

NEZ044-045-051>053-067-030900-
OMAHA AREA

CITY           SKY/WX    TMP DP  RH WIND       PRES   REMARKS
OMAHA EPPLEY   CLEAR     45  41  86 SE5       30.04F
BLAIR          CLEAR     48  40  73 S3        30.04F
FREMONT        CLEAR     44  44  98 CALM      30.04F
$$




USA.gov is the U.S. government's official web portal to all federal, state and local government web resources and services.